Content
SEND FEEDBACK

Daily
Averages
Monthly
Summary
United States of America

PERU, VERMONT


Home > North America > United States > Vermont
Elevation: 1660 feet     Latitude: 43 14N     Longitude: 072 54W

WEATHER
 
SELECT A DAY
Number of Records: 454,644;   Date Range: 1/1/95 - 7/26/14
 
SHARE

PRINT THIS DATA

[ ← Previous Day ]
WEATHER ALMANAC - FEBRUARY 18, 2014
[ Next Day → ]
[ °C ]   °F
Weather ElementAverageHighLow
Temperature17.1 °F23 °F (4:15 pm)-0.4 °F (1:15 am)
Dewpoint9.4 °F19.4 °F (3:55 pm)-9.4 °F (12:35 am)
Humidity74.6 %100 % (7:35 pm)32 % (5:15 am)
Barometer30.06 in30.25 in (12:35 am)29.95 in (2:15 pm)
Wind Speed9.1 mph20.7 mph (5:35 am)
Wind Gust28.8 mph (6:55 am)
Weather ElementAverage
Visibility6.7 mi
Wind DirectionSE (137.2 °)

Weather ElementTotal
Precipitation---
Heating Degree Days53.7 (Base 65)
Averaged from 71 records on February 18, 2014
WEATHER CONDITIONS BREAKOUT
WIND DIRECTION BREAKOUT
WEATHER BY HOUR - FEBRUARY 18, 2014
[ °C ]   °F
Local TimeTemperatureDewpointHumidityBarometerVisibilityWind DirectionWind SpeedGust SpeedPrecipitationEventsConditions
12:35 AM1.4 °F-9.4 °F61 %30.25 in10.0 miSE (130°)13.8 mphClear
12:55 AM1.4 °F-5.8 °F72 %30.23 in10.0 miESE (120°)12.7 mph19.6 mphClear
1:15 AM-0.4 °F-7.6 °F72 %30.23 in10.0 miESE (120°)9.2 mphClear
1:35 AM1.4 °F-5.8 °F72 %30.21 in10.0 miSSW (200°)3.5 mphClear
1:55 AM3.2 °F-7.6 °F61 %30.22 in10.0 miSouth (170°)8.1 mphClear
2:15 AM6.8 °F-4.0 °F61 %30.21 in10.0 miSSE (150°)8.1 mphClear
2:35 AM3.2 °F-9.4 °F56 %30.20 in10.0 miSouth (170°)5.8 mphClear
2:55 AM6.8 °F-2.2 °F67 %30.19 in10.0 miSSW (210°)9.2 mphClear
3:15 AM12.2 °F-4.0 °F48 %30.19 in10.0 miSSE (150°)11.5 mphClear
3:35 AM14.0 °F-5.8 °F41 %30.18 in10.0 miSE (130°)16.1 mphClear
3:55 AM15.8 °F-7.6 °F35 %30.16 in10.0 miSSE (160°)17.3 mphScattered Clouds
4:15 AM15.8 °F-5.8 °F38 %30.15 in10.0 miSSE (150°)16.1 mphScattered Clouds
4:35 AM17.6 °F-5.8 °F35 %30.17 in10.0 miSE (130°)18.4 mph23.0 mphMostly Cloudy
4:55 AM15.8 °F-5.8 °F38 %30.16 in10.0 miSSE (150°)16.1 mphOvercast
5:15 AM17.6 °F-7.6 °F32 %30.16 in10.0 miSSE (160°)15.0 mph20.7 mphOvercast
5:35 AM17.6 °F-7.6 °F32 %30.16 in10.0 miSE (130°)20.7 mph26.5 mphOvercast
5:55 AM17.6 °F-5.8 °F35 %30.17 in10.0 miSE (140°)15.0 mphOvercast
6:15 AM17.6 °F-5.8 °F35 %30.16 in10.0 miESE (120°)18.4 mph25.3 mphOvercast
6:35 AM17.6 °F-5.8 °F35 %30.16 in10.0 miSE (140°)12.7 mph20.7 mphOvercast
6:55 AM15.8 °F3.2 °F58 %30.13 in1.8 miSE (130°)18.4 mph28.8 mphOvercast
7:15 AM14.0 °F3.2 °F62 %30.14 in5.0 miSE (140°)13.8 mph27.6 mphOvercast
7:35 AM14.0 °F6.8 °F73 %30.14 in10.0 miSE (140°)13.8 mph24.2 mphOvercast
7:55 AM15.8 °F6.8 °F68 %30.14 in9.0 miSE (130°)19.6 mph27.6 mphOvercast
8:15 AM15.8 °F6.8 °F68 %30.14 in2.0 miSE (130°)18.4 mph23.0 mphOvercast
8:35 AM15.8 °F8.6 °F73 %30.13 in1.0 miSE (130°)13.8 mphOvercast
8:55 AM14.0 °F10.4 °F86 %30.12 in1.2 miESE (110°)8.1 mphOvercast
9:15 AM15.8 °F10.4 °F79 %30.11 in1.5 miESE (110°)10.4 mphOvercast
9:35 AM15.8 °F12.2 °F86 %30.09 in0.8 miSouth (170°)11.5 mph16.1 mphOvercast
9:55 AM17.6 °F10.4 °F73 %30.09 in1.2 miSSE (160°)12.7 mphOvercast
10:15 AM17.6 °F12.2 °F79 %30.07 in5.0 miSE (140°)12.7 mph23.0 mphOvercast
10:35 AM19.4 °F12.2 °F74 %30.07 in10.0 miSE (140°)8.1 mphOvercast
10:55 AM19.4 °F14.0 °F80 %30.05 in10.0 miSouth (180°)10.4 mph18.4 mphOvercast
11:15 AM21.2 °F12.2 °F68 %30.04 in5.0 miSouth (180°)11.5 mph17.3 mphOvercast
11:35 AM21.2 °F14.0 °F74 %30.03 in3.0 miSouth (190°)5.8 mphOvercast
11:55 AM21.2 °F15.8 °F80 %30.01 in5.0 miSouth (180°)4.6 mph17.3 mphOvercast
12:15 PM21.2 °F12.2 °F68 %30.00 in3.0 miSE (130°)9.2 mph21.9 mphOvercast
12:35 PM21.2 °F17.6 °F86 %29.98 in1.5 miSE (140°)11.5 mph19.6 mphOvercast
12:55 PM21.2 °F15.8 °F80 %29.98 in1.2 miSouth (170°)8.1 mph20.7 mphOvercast
1:15 PM19.4 °F15.8 °F86 %29.97 in1.0 miSouth (180°)10.4 mph19.6 mphOvercast
1:35 PM19.4 °F17.6 °F93 %29.96 in1.2 miSSW (200°)8.1 mph17.3 mphOvercast
1:55 PM21.2 °F15.8 °F80 %29.96 in1.5 miSouth (190°)6.9 mphOvercast
2:15 PM21.2 °F15.8 °F80 %29.95 in2.0 miSouth (180°)12.7 mph17.3 mphOvercast
2:35 PM21.2 °F15.8 °F80 %29.96 in1.0 miSouth (170°)5.8 mph19.6 mphOvercast
2:55 PM21.2 °F15.8 °F80 %29.95 in2.0 miSSE (150°)15.0 mphOvercast
3:15 PM21.2 °F17.6 °F86 %29.95 in2.0 miSouth (170°)13.8 mph19.6 mphOvercast
3:35 PM21.2 °F17.6 °F86 %29.96 in1.2 miSSE (160°)8.1 mphOvercast
3:55 PM21.2 °F19.4 °F93 %29.95 in1.0 miSSE (150°)10.4 mphOvercast
4:15 PM23.0 °F17.6 °F80 %29.96 in1.5 miSouth (190°)8.1 mphOvercast
4:35 PM23.0 °F19.4 °F86 %29.96 in2.0 miSouth (170°)8.1 mphOvercast
4:55 PM23.0 °F19.4 °F86 %29.95 in5.0 miSouth (170°)8.1 mphOvercast
5:15 PM23.0 °F17.6 °F80 %29.96 in3.0 miSouth (180°)9.2 mphOvercast
5:35 PM23.0 °F17.6 °F80 %29.97 in4.0 miSSE (160°)8.1 mphOvercast
5:55 PM23.0 °F19.4 °F86 %29.98 in8.0 miSSE (150°)6.9 mphOvercast
6:15 PM21.2 °F19.4 °F93 %29.98 in10.0 miCalmOvercast
6:35 PM21.2 °F19.4 °F93 %29.97 in10.0 miCalmOvercast
6:55 PM21.2 °F19.4 °F93 %29.98 in7.0 miCalmMostly Cloudy
7:15 PM21.2 °F19.4 °F93 %29.98 in10.0 miCalmPartly Cloudy
7:35 PM19.4 °F19.4 °F100 %29.99 in9.0 miSE (130°)3.5 mphClear
7:55 PM17.6 °F17.6 °F100 %29.99 in10.0 miESE (120°)3.5 mphMostly Cloudy
8:15 PM19.4 °F17.6 °F93 %29.99 in10.0 miSE (140°)3.5 mphOvercast
8:35 PM19.4 °F17.6 °F93 %30.00 in10.0 miSE (130°)5.8 mphOvercast
8:55 PM19.4 °F17.6 °F93 %30.01 in10.0 miSSE (150°)3.5 mphOvercast
9:15 PM19.4 °F17.6 °F93 %30.00 in10.0 miCalmOvercast
9:35 PM19.4 °F17.6 °F93 %30.02 in10.0 miWest (270°)3.5 mphOvercast
9:55 PM19.4 °F15.8 °F86 %30.02 in10.0 miCalmOvercast
10:15 PM19.4 °F17.6 °F93 %30.01 in10.0 miCalmOvercast
10:35 PM19.4 °F17.6 °F93 %30.01 in10.0 miSE (130°)3.5 mphOvercast
10:55 PM19.4 °F17.6 °F93 %29.99 in10.0 miSE (130°)3.5 mphMostly Cloudy
11:15 PM17.6 °F17.6 °F100 %30.00 in8.0 miWest (260°)3.5 mphPartly Cloudy
11:35 PM17.6 °F15.8 °F93 %30.00 in10.0 miCalmMostly Cloudy
11:55 PM15.8 °F15.8 °F100 %29.99 in10.0 miEast (80°)5.8 mphOvercast
Hourly data recorded from KRUT, located miles away from Peru, Vermont







STORIES FROM OUR PARTNERS